Погода в Гомеле

Погода в Гомеле : погода сейчас, прогноз погоды и архив. Всё, что Вы хотите узнать о погоде в Гомеле!

Хотите узнать прогноз погоды в Гомеле? Тогда Вам сюда: Погода в Гомеле

Поиск расширенной информации на нашем сайте:

Другие новости

Новости СМИ2

Главная страница сайта

Новости сайта

03.07.2017

Напоминаем, что на нашем специализированном сайте Метеоцентр.Азия вы можете получить высокодетализированные автоматические прогнозы погоды по пунктам России, СНГ и мира в авиационном формате (включающие направление и скорость ветра, видимость, явления погоды, количество и форму облачности, нижнюю и верхнюю границу облачности).


Погода в Гомеле - сегодня

Время (UTC), дата Ветер
(°,м/с) 
Видим.   Явления Облачность Т
(°С)
Тd
(°С)
f(%) Тe
(°С)
Pmin
(гПа)
dP
(гПа)
Po
(мм)
O2
(г/м3)
Тmin Tmax R s Состояние
почвы
00 23.02.18 050 (СВ) 9000 м  слаб. снег{ливн. осадки}  10/10 300 м 
[Frnb|Ns]
-7.1 -8.9 87 -7  1026.7  -0.1  758  314           
03 23.02.18 080 (В) 9000 м  слаб. снег  10/10 400 м 
[Frnb|Ns]
-7.6 -9.3 88 -7  1026.3  -0.4  757  315      0.5  20   
06 23.02.18 060 (СВ) 6000 м  слаб. снег  10/10 930 м 
[Sc]
-7.9 -9.4 89 -8  1026.2  -0.1  757  315  -8.1    0.7  20  равномерный
сухой снег
100% 
09 23.02.18 тихо ()   10 км  в посл. час снег  9/9 800 м 
[Sc]
-5.4 -8.8 77 -5  1026.2  0.1  757  312           
12 23.02.18 090 (В) 8000 м  слаб. ливневой снег  8/6 800 м кучево-дожд., средняя 
[Cb cap|Ac trans]
-4.5 -8 76 -4  1025.4  -0.7  757  311           
15 23.02.18 070 (В) 8000 м  слаб. снег{ливн. осадки}  10/6 660 м средняя 
[Sc|Ac As]
-5.3 -8.1 81 -5  1024.2  -1.2  756  311      0.1     
18 23.02.18 100 (В) 5000 м  слаб. снег{ливн. осадки}  10/4 1000 м средняя 
[Sc|Ac As]
-6.7 -8.7 86 -6  1024  -0.3  756  313    -3.6  0.2  21   
21 23.02.18 130 (ЮВ) 10 км  слаб. снег  10/10 1140 м 
[Sc]
-7.6 -10.4 80 -9  1023.6  -0.5  755  314           
00 24.02.18 100 (В) 15000 м  {снег}  10/4 1000 м средняя 
[Sc|Ac As]
-9.8 -12.2 83 -10  1023.2  -0.5  755  317           
03 24.02.18 090 (В) 5000 м  слаб. снег  10/6 1110 м средняя 
[Sc|Ac As]
-11 -13.3 83 -11  1022.6  -0.7  754  318      0.1  21   
06 24.02.18 070 (В) 8000 м  слаб. снег  10/0 средняя 
[Sc|Ac As]
-10.6 -13 82 -12  1022.7  0.2  755  318  -11    0.3  22  равномерный
сухой снег
100% 
09 24.02.18 080 (В) 6000 м  слаб. снег  10/6 1260 м средняя 
[Sc|Ac As]
-9.6 -13.6 73 -13  1023.2  0.5  755  317           
12 24.02.18 040 (СВ) 3600 м  снег  10/10 930 м 
[Ns]
-8.3 -11.7 76 -10  1023.1  755  315           
15 24.02.18 040 (СВ) 6000 м  слаб. снег  10/10 1500 м 
[Ns]
-9.7 -13.1 76 -10  1024.1  0.9  756  317      0.6     
18 24.02.18 030 (СВ) 10 км  {снег}  10/6 750 м средняя 
[Sc|As op]
-11 -14.8 73 -11  1025.3  1.1  756  319    -7.7  0.6  22   
21 24.02.18 050 (СВ) 10 км  {снег}  3/3 1000 м 
[Sc]
-12.7 -16.5 73 -13  1026.1  0.7  757  321           
00 25.02.18 030 (СВ) 10 км  {снег}  4/0 средняя, верхняя 
[Ac trans|Ci fib]
-14.2 -17.1 79 -14  1026.6  0.4  757  323           
03 25.02.18 010 (С) 10 км    5/0 средняя, верхняя 
[Ac trans|Ci fib]
-15.7 -17.9 83 -18  1026.6  -0.1  757  325      0.0  22   
06 25.02.18 010 (С) 9000 м  слаб. снег  10/6 1320 м средняя, верхняя 
[Sc|Ac trans|Ci]
-14.8 -17.1 83 -15  1027.3  0.7  758  324  -15.8    0.0  22  равномерный
сухой снег
100% 
09 25.02.18 050 (СВ) 21000 м  {снег}  3/1 1000 м верхняя 
[Sc|Ci fib]
-10.5 -16.2 63 -12  1027.1  0.1  758  319           
12 25.02.18 310 (СЗ) 10 км  слаб. снег  8/6 900 м средняя, верхняя 
[Sc|Ac trans|Ci]
-9.9 -15.9 61 -12  1026.5  -0.6  757  318           
15 25.02.18 300 (СЗ) 28000 м  {снег}  9/5 1000 м средняя 
[Sc|Ac und]
-10.9 -16.6 63 -11  1026.5  757  319      0.0     
18 25.02.18 330 (СЗ) 17000 м  в посл. час снег  10/6 700 м средняя 
[Sc|Ac As]
-12 -16 72 -12  1027.1  0.5  758  321    -9.5  0.0  21   
21 25.02.18 330 (СЗ) 10 км  в посл. час снег  10/8 1200 м средняя 
[Sc|Ac As]
-12.4 -15.7 76 -12  1027.3  0.2  758  321           
00 26.02.18 310 (СЗ) 11000 м  {снег}  4/0 средняя 
[Ac trans]
-15.3 -17.3 85 -15  1027.6  0.1  758  325           
Время (UTC), дата Ветер
(°,м/с) 
Видим.   Явления Облачность Т
(°С)
Тd
(°С)
f(%) Тe
(°С)
Pmin
(гПа)
dP
(гПа)
Po
(мм)
O2
(г/м3)
Тmin Tmax R s Состояние
почвы

Для получения пояснительной информации подведите курсор к названию столбца.

ПОГОДА в Гомеле - архив

Всё, что Вы хотите узнать о погоде в Гомеле - удобно и подробно!

Выберите нужную дату (начиная с 1 января 2015* года) и нажмите кнопку "Найти".
Будут отображены архивные сводки погоды по пункту Гомель, начиная с указанной даты.


Отображать данные в формате CSV (для использования в таблицах Excel)


Внимание! Наш архив погоды предназначен исключительно для личного некоммерческого использования в познавательных целях. Если Вам необходимы официальные справки о состоянии погоды (для производственных, юридических, коммерческих и т.п. целей), обращайтесь в органы Росгидромета.

*Примечание: данная дата относится к архиву по метеостанциям СССР (Россия, СНГ, Балтия).
Архив по метеостанциям Зарубежной Европы и Азии (кроме Китая) хранится 10 дней, по другим регионам земного шара (Китай, Африка, Америка, Австралия, Океания) - 1 день.

Гомель - район местоположения метеостанции


Название, широта, долгота, высота метеостанции:
Гомель (город) 52.4°ш. 30.9°д. 126 м над ур. моря [Беларусь]

Дополнительная информация

В oтличие oт бoльшинства пoгoдных сайтoв мы публикуем пoдрoбную метеoинфoрмацию в детальнoм прoфессиoнальнoм фoрмате.

Характеристики температуры и влажнoсти вoздуха измеряются на высoте 2 м в тени вдали oт зданий и деревьев.
Скoрoсть ветра измеряется на высoте 10 м (на урoвне рoста челoвека скoрoсть ветра ниже в 1.5-2 раза). Если метеoстанция нахoдится в гoрoде или в лесу, тo скoрoсть ветра занижена на 2-4 м/с пo сравнению с oткрытым местoм. Скoрoсть ветра над акватoриями крупных рек и oзёр, а также на вершинах хoлмoв на 2-5 м/с выше, чем в oбычных услoвиях.
Атмoсфернoе давление в разных тoчках местнoсти мoжет значительнo oтличаться oт давления на метеoстанции, в зависимoсти oт услoвий рельефа (при пoдъёме на 10 м давление пoнижается примернo на 1 мм рт.ст.).